Location: Chiroubles
(46.1812°N, 4.6660°E)
Time: 16:31:06
(UTC+00:00)

Transit 4A - Pass Details

Date: 08 December 2020
Orbit: 864 x 980 km, 66.8° (Epoch: 26 January)

Event Time Altitude Azimuth Distance (km) Brightness Sun altitude
Rises 05:40:21 0° 210° (SSW) 3,627 10.9 -15.0°
Reaches altitude 10° 05:42:52 10° 210° (SSW) 2,696 10.2 -14.6°
Maximum altitude 05:49:13 89° 126° (SE) 983 8.0 -13.6°
Drops below altitude 10° 05:55:41 10° 34° (NNE) 2,741 10.5 -12.5°
Sets 05:58:15 0° 34° (NE) 3,690 11.2 -12.1°
